Home   Weather   Tromsø   Past weeks

Flag for Norway Past Weather in Tromsø, Norway — Yesterday and Last 2 Weeks

Now
28 °F

Snow flurries. Partly cloudy.


Feels Like: 23 °F
Forecast: 14 / 28 °F
Wind: 5 mph from Southwest

Location: Tromso / Langnes

Current Time: Jan 21, 2017 at 8:47:55 pm

Latest Report: Jan 21, 2017 at 7:50 pm


Visibility: 2 mi

Pressure: 29.92 "Hg

Humidity: 93%

Dew Point: 27 °F

Location of TromsøLocation

Past Weather in Tromsø — Graph

°F

Tromsø Temperature Yesterday

Maximum temperature yesterday: 28 °F (at 12:50 am)
Minimum temperature yesterday: 27 °F (at 12:20 am)
Average temperature yesterday: 27 °F

High & Low Weather Summary for the Past Weeks

 TemperatureHumidityPressure
High41 °F (Jan 8, 10:50 am)100% (Jan 6, 11:20 pm)30.07 "Hg (Jan 6, 11:20 pm)
Low19 °F (Jan 10, 9:20 am)51% (Jan 20, 5:20 pm)28.80 "Hg (Jan 12, 5:20 am)
Average30 °F79%29.39 "Hg
* Reported Jan 6 7:20 pm — Jan 21 7:20 pm, Tromsø, Weather by CustomWeather, © 2017

Note: Actual official high and low records may vary slightly from our data, if they occured in-between our weather recording intervals... More about our weather records

Advertising

Tromsø Weather History for the Previous 24 Hours

Scroll right to see more
 ConditionsComfort  
Time TempWeatherWind HumidityBarometerVisibility
7:20 pm
Sat, Jan 21
28 °FSnow flurries. Passing clouds.5 mph93%29.92 "HgN/A
6:50 pm28 °FSnow flurries. Partly cloudy.8 mph93%29.92 "HgN/A
6:20 pm30 °FSnow flurries. Passing clouds.17 mph75%29.92 "Hg4 mi
5:50 pm30 °FSnow flurries. Partly cloudy.15 mph75%29.92 "HgN/A
5:20 pm30 °FSnow flurries. Passing clouds.17 mph80%29.92 "HgN/A
4:50 pm30 °FSnow flurries. Passing clouds.12 mph69%29.92 "Hg5 mi
4:20 pm30 °FPassing clouds.8 mph75%29.92 "HgN/A
3:50 pm28 °FLight mixture of precip. Passing clouds.7 mph80%29.92 "HgN/A
3:20 pm28 °FSnow flurries. Partly cloudy.9 mph86%29.95 "HgN/A
2:50 pm28 °FLight snow. Ice fog.14 mph93%29.95 "Hg4 mi
1:50 pm32 °FScattered showers. Passing clouds.9 mph60%29.95 "HgN/A
12:50 pm30 °FLight mixture of precip. Partly sunny.8 mph59%29.98 "HgN/A
11:50 am28 °FLight mixture of precip. Partly sunny.15 mph86%29.98 "HgN/A
10:50 am30 °FLight mixture of precip. Scattered clouds.9 mph75%29.98 "HgN/A
10:20 am28 °FSnow. Passing clouds.18 mph86%29.98 "HgN/A
9:50 am28 °FLight mixture of precip. Partly cloudy.9 mph80%29.98 "HgN/A
9:20 am28 °FLight mixture of precip. Partly cloudy.15 mph74%29.98 "HgN/A
8:50 am27 °FSnow. Overcast.22 mph86%29.95 "HgN/A
8:20 am28 °FSleet. Partly cloudy.10 mph80%29.95 "HgN/A
7:50 am27 °FSnow flurries. Partly cloudy.8 mph80%29.95 "HgN/A
7:20 am28 °FLight mixture of precip. Partly cloudy.3 mph69%29.95 "HgN/A
6:50 am28 °FSnow flurries. Passing clouds.9 mph74%29.95 "HgN/A
6:20 am28 °FSnow flurries. Ice fog.6 mph74%29.95 "Hg4 mi
4:50 am28 °FLight snow. Ice fog.10 mph64%29.92 "Hg3 mi
3:50 am30 °FPassing clouds.16 mph51%29.89 "HgN/A
2:50 am27 °FPartly cloudy.21 mph74%29.86 "HgN/A
1:50 am25 °FSnow. Ice fog.15 mph86%29.83 "Hg2 mi
12:50 am28 °FSnow flurries. Passing clouds.22 mph59%29.80 "HgN/A
11:50 pm
Fri, Jan 20
27 °FPassing clouds.20 mph74%29.77 "HgN/A
10:50 pm27 °FPartly cloudy.15 mph80%29.74 "HgN/A
10:20 pm27 °FSnow flurries. Partly cloudy.16 mph74%29.74 "Hg6 mi
9:50 pm27 °FSnow. Ice fog.18 mph74%29.71 "Hg1 mi
8:50 pm28 °FLight snow. Partly cloudy.21 mph59%29.71 "HgN/A
8:20 pm27 °FLight mixture of precip. Partly cloudy.17 mph80%29.71 "HgN/A
Weather by CustomWeather, © 2017

See weather overviewHow to use our weather pages